Location: Ferchesar
(52.6477°N, 12.4298°E)
Time: 23:23:11
(UTC+01:00)

Transit 4A - Pass Details

Date: 16 December 2021
Orbit: 864 x 981 km, 66.8° (Epoch: 19 January)

Event Time Altitude Azimuth Distance (km) Brightness Sun altitude
Rises 17:40:19 0° 226° (SW) 3,480 12.2 -14.6°
Reaches altitude 10° 17:42:47 10° 229° (SW) 2,558 11.3 -15.0°
Maximum altitude 17:48:42 70° 313° (NW) 971 8.1 -15.8°
Enters shadow 17:53:30 17° 35° (NE) 2,160 9.4 -16.5°
